Regional Weather Roundup
Issued by NWS Upton, NY

Current Version | Previous Version | Graphics & Text | Print | Product List | Glossary Off
Versions: 1 2 3 4 5 6 7 8 9 10 11 12 13 14 15 16 17 18 19 20 21 22 23 24 25 26 27 28 29 30 31 32 33 34 35 36 37 38 39 40 41 42 43 44 45 46 47 48 49 50

000
ASUS41 KOKX 210705
RWROKX

REGIONAL WEATHER ROUNDUP
NATIONAL WEATHER SERVICE NEW YORK NY
200 AM EST SUN DEC 21 2014

NOTE: "FAIR" INDICATES FEW OR NO CLOUDS BELOW 12,000 FEET WITH NO
SIGNIFICANT WEATHER AND/OR OBSTRUCTIONS TO VISIBILITY.

NYZ071-072-176-178-NJZ106-104-210800-
NEW YORK CITY METRO AREA


CITY           SKY/WX    TMP DP  RH WIND       PRES   REMARKS
CENTRAL PARK   CLOUDY    31  21  66 VRB3      30.30S
LAGUARDIA APRT CLOUDY    32  23  69 N5        30.28S WCI  27
KENNEDY INTL   CLOUDY    34  22  61 CALM      30.29S
NEWARK/LIBERTY CLOUDY    32  23  69 NW6       30.29S WCI  26
BRNX BOT. GARD   N/A    N/A N/A N/A W2        30.30R
TETERBORO      CLOUDY    32  22  66 N3        30.28F
$$

NYZ177-179-078>081-210800-
LONG ISLAND NEW YORK

CITY           SKY/WX    TMP DP  RH WIND       PRES   REMARKS
FARMINGDALE    CLOUDY    33  23  66 NW3       30.28S
ISLIP          CLOUDY    33  24  69 NW6       30.26S WCI  28
SHIRLEY        CLOUDY    33  28  81 W5        30.28R WCI  29
WESTHAMPTON    CLOUDY    33  28  81 NW3       30.28S
MONTAUK POINT    N/A     39  35  86 N9        30.26R WCI  33
$$

NYZ052-065-067-210800-
HUDSON VALLEY

CITY           SKY/WX    TMP DP  RH WIND       PRES   REMARKS
WHITE PLAINS   CLOUDY    29  24  82 NW6       30.25F WCI  23
NEWBURGH       NOT AVBL
MONTGOMERY     CLOUDY    28  24  85 NE3       30.27S
POUGHKEEPSIE   LGT SNOW  29  23  78 NE3       30.29S
ALBANY         FLURRIES  28  20  71 N3        30.32R
$$

NJZ001-105-106-008-010-013-015-019>022-104-210800-
NEW JERSEY

CITY           SKY/WX    TMP DP  RH WIND       PRES   REMARKS
NEWARK/LIBERTY CLOUDY    32  23  69 NW6       30.29S WCI  26
TETERBORO      CLOUDY    32  22  66 N3        30.28F
CALDWELL       CLOUDY    30  23  75 CALM      30.29S
MORRISTOWN     CLOUDY    32  25  74 CALM      30.28S
SOMERVILLE     CLOUDY    32  23  69 CALM      30.27S
SUSSEX         CLOUDY    28  25  88 NE3       30.26F
ANDOVER          N/A     28  22  78 CALM      30.26S
TRENTON        CLOUDY    30  22  72 NW3       30.28S
MILLVILLE      CLOUDY    29  24  82 CALM      30.30R
ATLANTIC CITY  CLOUDY    30  23  75 CALM      30.29S
WRIGHTSTOWN    CLOUDY    29  24  82 NW3       30.26F
TOMS RIVER     CLOUDY    27  23  86 NW6       30.29S WCI  20
BELMAR         CLOUDY    30  19  64 NW5       30.27F WCI  25
$$

PAZ047>061-062-071-210800-
EASTERN PENNSYLVANIA

CITY           SKY/WX    TMP DP  RH WIND       PRES   REMARKS
PHILADELPHIA   CLOUDY    33  23  66 CALM      30.31R
ALLENTOWN      CLOUDY    31  22  69 CALM      30.28R
SCRANTON       CLOUDY    29  20  69 N3        30.24R
$$

CTZ002-004>006-009-010-012-RIZ004-006-007-MAZ004-011-015-210800-
SOUTHERN NEW ENGLAND
 IN CT

CITY           SKY/WX    TMP DP  RH WIND       PRES   REMARKS
BRADLEY INTL   LGT SNOW  31  28  89 N5        30.27S FOG     WCI  26
HARTFORD       LGT SNOW  32  27  81 VRB7      30.29R WCI  26
DANBURY        LGT SNOW  28  23  81 CALM      30.27F
WTRBRY/OXFORD  CLOUDY    30  21  69 CALM      30.26R
BRIDGEPORT     CLOUDY    33  26  75 NW3       30.28S
MERIDEN        LGT SNOW  32  27  81 N5        30.28R WCI  27
NEW HAVEN      LGT SNOW  34  25  69 N3        30.28R
CHESTER        CLOUDY    32  28  86 NW3       30.26R
GROTON         CLOUDY    33  29  85 N6        30.26R WCI  28
WILLIMANTIC    CLOUDY    33  27  78 NE5       30.27S WCI  29

 IN RI

CITY           SKY/WX    TMP DP  RH WIND       PRES   REMARKS
PROVIDENCE     CLOUDY    32  30  92 N9        30.27R FOG     WCI  24
BLOCK ISLAND   CLOUDY    39  34  81 NE10G17   30.23S WCI  32
WESTERLY       CLOUDY    34  31  88 N6        30.26S WCI  29

 IN MA

CITY           SKY/WX    TMP DP  RH WIND       PRES   REMARKS
BOSTON         CLOUDY    35  30  82 NE14      30.29R WCI  26
WORCESTER      CLOUDY    28  24  85 NE8       30.23S WCI  20
WESTFIELD      LGT SNOW  31  27  85 N3        30.28R FOG
PROVINCETOWN   CLOUDY    37  32  81 NE15G23   30.27S WCI  28
NANTUCKET      CLOUDY    41  33  73 NE8       30.24R
$$

ANZ330-335-338-340-345-350-353-355-210800-
COASTAL MARINE OBSERVATIONS


STATION/POSITION TIME  SKY/WX   TEMP    WIND        PRES    VSBY  WAVE
                                AIR SEA DIR/SP/G                  HT/PER
                 (UTC)          (F)     (DEG/KT/KT) (MB)    (MI)  (FT/S)
NY HARB ENTRANCE 0700            35 45   10/  6/  8 1025.6          1/10
4S FIRE IS       0700               45                N/A           1/10
20S FIRE ISLAND  0600            36 49              1025.5          1/10
23SW MTP         0700                                 N/A           3/ 5
HUDSON CANYON    0700            40 54  330/ 10/ 12 1024.1          2/11
EXECUTION ROCKS  0700            33 41  340/  8/ 10   N/A
WESTERN LI SOUND 0700            33     320/  6/  8   N/A           0
CENTRAL LI SOUND 0600            34 44   10/  6/  8   N/A           0
EASTERN LI SOUND NOT AVBL
ROBBINS REEF     0600            32     160/  3/  8 1024.2
$$


>>>>>>>>>>>>>>>>>>>>>>>>>>>> KEY <<<<<<<<<<<<<<<<<<<<<<<<<<<
>                                                          <
>     SKY/WX - SKY CONDITION/PRESENT WEATHER               <
>     TMP    - TEMPERATURE IN FAHRENHEIT                   <
>     DP     - DEWPOINT IN FAHRENHEIT                      <
>     RH     - RELATIVE HUMIDITY IN PERCENT                <
>     WIND   - DIRECTION AND SPEED IN MPH                  <
>     PRES   - MEAN SEA LEVEL PRESSURE IN INCHES OF HG     <
>     WCI    - WIND CHILL INDEX                            <
>     VSB    - VISIBILITY IN MILES                         <
>     HX     - HEAT INDEX                                  <
>     TC     - TEMPERATURE IN CELSIUS                      <
>     VRB    - VARIABLE WIND DIRECTION                     <
>                                                          <
>>>>>>>>>>>>>>>>>>>>>>>>>>>> KEY <<<<<<<<<<<<<<<<<<<<<<<<<<<





USA.gov is the U.S. government's official web portal to all federal, state and local government web resources and services.